This is the latest recevied weather packets stored in our database for station/object K5UBE. If no packets are shown the sender has not sent any weather packets the latest 10 day(s).
| Time | Temp. | Humidity | Pressure | Rain* | Wind** | Luminosity | Snow |
|---|---|---|---|---|---|---|---|
| 1777389907 | 21.67° C | 12% | 1018.1 hPa | 0 mm | - | - | - |
| 1777389603 | 22.22° C | 12% | 1018 hPa | 0 mm | - | - | - |
| 1777389299 | 21.11° C | 12% | 1018 hPa | 0 mm | - | - | - |
| 1777388998 | 22.22° C | 12% | 1018 hPa | 0 mm | - | - | - |
| 1777388694 | 21.11° C | 13% | 1017.9 hPa | 0 mm | - | - | - |
| 1777388391 | 21.11° C | 13% | 1017.8 hPa | 0 mm | - | - | - |
| 1777388090 | 21.67° C | 13% | 1017.8 hPa | 0 mm | - | - | - |
| 1777387787 | 20.56° C | 13% | 1018 hPa | 0 mm | - | - | - |
| 1777387484 | 20.56° C | 13% | 1018 hPa | 0 mm | - | - | - |
| 1777387179 | 20.56° C | 13% | 1017.9 hPa | 0 mm | - | - | - |
| 1777386874 | 20° C | 14% | 1017.8 hPa | 0 mm | - | - | - |
| 1777386571 | 20° C | 14% | 1017.9 hPa | 0 mm | - | - | - |
| 1777386268 | 20° C | 13% | 1017.9 hPa | 0 mm | - | - | - |
| 1777385966 | 19.44° C | 14% | 1017.9 hPa | 0 mm | - | - | - |
| 1777385662 | 19.44° C | 14% | 1017.9 hPa | 0 mm | - | - | - |
| 1777385360 | 18.89° C | 16% | 1018 hPa | 0 mm | - | - | - |
| 1777385056 | 18.33° C | 17% | 1017.9 hPa | 0 mm | - | - | - |
| 1777384753 | 17.22° C | 18% | 1018 hPa | 0 mm | - | - | - |
| 1777384449 | 16.67° C | 19% | 1017.8 hPa | 0 mm | - | - | - |
| 1777384144 | 16.67° C | 19% | 1017.6 hPa | 0 mm | - | - | - |
| 1777383841 | 16.11° C | 19% | 1017.5 hPa | 0 mm | - | - | - |
| 1777383536 | 15.56° C | 20% | 1017.6 hPa | 0 mm | - | - | - |
| 1777383233 | 15.56° C | 21% | 1017.6 hPa | 0 mm | - | - | - |
| 1777382930 | 15.56° C | 20% | 1017.8 hPa | 0 mm | - | - | - |
| 1777382624 | 15° C | 20% | 1017.5 hPa | 0 mm | - | - | - |
* Rain latest hour (hover to see other rain measurements)
** Current wind speed in m/s (hover to see current wind gust speed)